User: anonymous   Login
Location: Unspecified
(0.0000°N, 0.0000°E)
Time: 15:37:59
(UTC+00:00)
Language:

AO-Echo - Orbit

View from above orbital plane
View from above orbital plane
View from above satellite
View from above satellite

Ground track
Ground track

The orbit data is extracted from the following two-line orbital elements,

1 28375U 04025K   18049.85622344 +.00000010 +00000-0 +16381-4 0  9996
2 28375 098.3787 343.4174 0081310 259.6997 099.5017 14.41875668717304
Epoch (UTC): 18 February 2018 20:32:57
Eccentricity: 0.0081310
inclination: 98.3787°
perigee height: 694 km
apogee height: 810 km
right ascension of ascending node: 343.4174°
argument of perigee: 259.6997°
revolutions per day: 14.41875668
mean anomaly at epoch: 99.5017°
orbit number at epoch: 71730

The dashed part of the orbit path shows where the satellite is in the earth's shadow,  

DLR